EN

Hourly Weather Aba

Today, 13 June, Sunday

Time Temperature Precipitation Wind Pressure Humidity
00:00 +26°C° 0 mm 1 mps 754 mmHg 87%
01:00 +25°C° 0 mm 1 mps 753 mmHg 88%
02:00 +25°C° 0 mm 1 mps 753 mmHg 88%
03:00 +23°C° 0 mm 0 mps 753 mmHg 89%
04:00 +23°C° 0 mm 0 mps 754 mmHg 89%
05:00 +23°C° 0 mm 0 mps 754 mmHg 89%
06:00 +23°C° 0 mm 0 mps 755 mmHg 88%
07:00 +27°C° 0 mm 1 mps 755 mmHg 82%
08:00 +29°C° 0 mm 1 mps 755 mmHg 75%
09:00 +30°C° 0 mm 1 mps 756 mmHg 68%
10:00 +32°C° 0 mm 1 mps 755 mmHg 64%
11:00 +33°C° 0 mm 1 mps 754 mmHg 59%
12:00 +34°C° 0 mm 1 mps 754 mmHg 54%
13:00 +34°C° 0 mm 1 mps 753 mmHg 53%
14:00 +34°C° 0 mm 1 mps 752 mmHg 53%
15:00 +35°C° 0 mm 1 mps 752 mmHg 52%
16:00 +33°C° 0 mm 1 mps 752 mmHg 60%
17:00 +31°C° 0 mm 2 mps 752 mmHg 69%
18:00 +29°C° 0 mm 3 mps 753 mmHg 77%
19:00 +28°C° 0 mm 3 mps 753 mmHg 79%
20:00 +28°C° 0 mm 2 mps 753 mmHg 82%
21:00 +27°C° 0 mm 2 mps 754 mmHg 84%
22:00 +27°C° 0 mm 2 mps 754 mmHg 85%
23:00 +27°C° 0 mm 2 mps 754 mmHg 87%

Tomorrow, 14 June, Monday

Time Temperature Precipitation Wind Pressure Humidity
00:00 +26°C° 0 mm 2 mps 753 mmHg 88%
01:00 +26°C° 0.8 mm 1 mps 753 mmHg 90%
02:00 +26°C° 0.8 mm 1 mps 753 mmHg 92%
03:00 +25°C° 0.8 mm 1 mps 753 mmHg 95%
04:00 +26°C° 0 mm 1 mps 753 mmHg 94%
05:00 +26°C° 0 mm 1 mps 754 mmHg 93%
06:00 +24°C° 0 mm 0 mps 754 mmHg 92%
07:00 +27°C° 0.1 mm 1 mps 755 mmHg 86%
08:00 +29°C° 0.1 mm 1 mps 755 mmHg 80%
09:00 +30°C° 0.1 mm 2 mps 755 mmHg 74%
10:00 +31°C° 0.6 mm 2 mps 754 mmHg 71%
11:00 +31°C° 0.6 mm 2 mps 754 mmHg 68%
12:00 +32°C° 0.6 mm 2 mps 753 mmHg 66%
13:00 +32°C° 0.4 mm 2 mps 753 mmHg 67%
14:00 +31°C° 0.4 mm 3 mps 753 mmHg 68%
15:00 +31°C° 0.4 mm 3 mps 752 mmHg 69%
16:00 +30°C° 0.1 mm 3 mps 752 mmHg 73%
17:00 +29°C° 0.1 mm 2 mps 753 mmHg 77%
18:00 +28°C° 0.1 mm 2 mps 753 mmHg 82%
19:00 +27°C° 0 mm 2 mps 753 mmHg 83%
20:00 +27°C° 0 mm 2 mps 754 mmHg 85%
21:00 +27°C° 0 mm 2 mps 754 mmHg 86%
22:00 +26°C° 0 mm 2 mps 754 mmHg 87%
23:00 +26°C° 0 mm 1 mps 754 mmHg 87%

Day after tomorrow, 15 June, Tuesday

Time Temperature Precipitation Wind Pressure Humidity
00:00 +26°C° 0 mm 1 mps 753 mmHg 88%
01:00 +26°C° 0 mm 1 mps 753 mmHg 88%
02:00 +26°C° 0 mm 1 mps 753 mmHg 89%
03:00 +26°C° 0 mm 1 mps 753 mmHg 89%
04:00 +26°C° 0 mm 1 mps 753 mmHg 89%
05:00 +26°C° 0 mm 1 mps 754 mmHg 90%
06:00 +26°C° 0 mm 1 mps 754 mmHg 90%
07:00 +27°C° 0 mm 1 mps 754 mmHg 87%
08:00 +28°C° 0 mm 1 mps 755 mmHg 83%
09:00 +29°C° 0 mm 1 mps 755 mmHg 80%
10:00 +29°C° 0.7 mm 2 mps 755 mmHg 78%
11:00 +29°C° 0.7 mm 2 mps 755 mmHg 75%
12:00 +29°C° 0.7 mm 3 mps 754 mmHg 73%
13:00 +29°C° 0 mm 3 mps 754 mmHg 69%
14:00 +30°C° 0 mm 3 mps 753 mmHg 65%
15:00 +30°C° 0 mm 3 mps 752 mmHg 61%
16:00 +29°C° 0 mm 3 mps 752 mmHg 67%
17:00 +28°C° 0 mm 2 mps 752 mmHg 72%
18:00 +27°C° 0 mm 2 mps 753 mmHg 77%
19:00 +26°C° 0 mm 2 mps 753 mmHg 79%
20:00 +25°C° 0 mm 1 mps 753 mmHg 82%
21:00 +25°C° 0 mm 1 mps 753 mmHg 85%
22:00 +25°C° 0 mm 1 mps 753 mmHg 85%
23:00 +25°C° 0 mm 1 mps 753 mmHg 86%

16 June, Wednesday

Time Temperature Precipitation Wind Pressure Humidity
00:00 +24°C° 0 mm 1 mps 754 mmHg 86%
01:00 +24°C° 0 mm 1 mps 754 mmHg 87%
02:00 +24°C° 0 mm 1 mps 754 mmHg 89%
03:00 +24°C° 0 mm 1 mps 753 mmHg 90%
04:00 +24°C° 0 mm 1 mps 754 mmHg 89%
05:00 +24°C° 0 mm 1 mps 754 mmHg 88%
06:00 +24°C° 0 mm 1 mps 754 mmHg 87%
07:00 +26°C° 0 mm 1 mps 755 mmHg 79%
08:00 +29°C° 0 mm 1 mps 755 mmHg 70%
09:00 +31°C° 0 mm 1 mps 755 mmHg 61%
10:00 +32°C° 0 mm 1 mps 755 mmHg 58%
11:00 +33°C° 0 mm 1 mps 754 mmHg 54%
12:00 +34°C° 0 mm 1 mps 754 mmHg 51%
13:00 +34°C° 0.1 mm 1 mps 753 mmHg 53%
14:00 +33°C° 0.1 mm 1 mps 753 mmHg 54%
15:00 +33°C° 0.1 mm 1 mps 752 mmHg 56%
16:00 +31°C° 0.5 mm 1 mps 753 mmHg 66%
17:00 +29°C° 0.5 mm 2 mps 753 mmHg 75%
18:00 +27°C° 0.5 mm 2 mps 753 mmHg 85%
19:00 +27°C° 0 mm 2 mps 753 mmHg 87%
20:00 +26°C° 0 mm 2 mps 753 mmHg 89%
21:00 +26°C° 0 mm 2 mps 754 mmHg 91%
22:00 +26°C° 0 mm 2 mps 754 mmHg 92%
23:00 +26°C° 0 mm 2 mps 754 mmHg 93%

17 June, Thursday

Time Temperature Precipitation Wind Pressure Humidity
00:00 +25°C° 0 mm 2 mps 754 mmHg 93%
01:00 +25°C° 0.2 mm 2 mps 754 mmHg 94%
02:00 +25°C° 0.2 mm 1 mps 754 mmHg 95%
03:00 +25°C° 0.2 mm 1 mps 754 mmHg 95%
04:00 +25°C° 0.3 mm 1 mps 754 mmHg 95%
05:00 +25°C° 0.3 mm 1 mps 754 mmHg 95%
06:00 +25°C° 0.3 mm 1 mps 755 mmHg 95%
07:00 +27°C° 1.5 mm 1 mps 755 mmHg 89%
08:00 +28°C° 1.5 mm 1 mps 755 mmHg 84%
09:00 +29°C° 1.5 mm 2 mps 756 mmHg 78%
10:00 +29°C° 1.3 mm 2 mps 755 mmHg 76%
11:00 +30°C° 1.3 mm 2 mps 755 mmHg 74%
12:00 +30°C° 1.3 mm 2 mps 755 mmHg 72%
13:00 +30°C° 1.2 mm 3 mps 754 mmHg 74%
14:00 +30°C° 1.2 mm 3 mps 754 mmHg 76%
15:00 +29°C° 1.2 mm 4 mps 754 mmHg 78%
16:00 +28°C° 0.7 mm 3 mps 754 mmHg 82%
17:00 +27°C° 0.7 mm 3 mps 754 mmHg 87%
18:00 +26°C° 0.7 mm 2 mps 755 mmHg 91%
19:00 +26°C° 0 mm 2 mps 755 mmHg 92%
20:00 +26°C° 0 mm 2 mps 755 mmHg 93%
21:00 +26°C° 0 mm 2 mps 755 mmHg 94%
22:00 +26°C° 0 mm 1 mps 755 mmHg 95%
23:00 +25°C° 0 mm 1 mps 755 mmHg 95%

18 June, Friday

Time Temperature Precipitation Wind Pressure Humidity
00:00 +25°C° 0 mm 1 mps 755 mmHg 96%
01:00 +25°C° 0.4 mm 1 mps 755 mmHg 96%
02:00 +25°C° 0.4 mm 1 mps 755 mmHg 96%
03:00 +23°C° 0.4 mm 0 mps 755 mmHg 97%
04:00 +23°C° 0.1 mm 0 mps 755 mmHg 96%
05:00 +23°C° 0.1 mm 0 mps 755 mmHg 95%
06:00 +23°C° 0.1 mm 0 mps 755 mmHg 94%
07:00 +25°C° 0 mm 0 mps 756 mmHg 88%
08:00 +28°C° 0 mm 1 mps 756 mmHg 81%
09:00 +30°C° 0 mm 1 mps 756 mmHg 74%
10:00 +31°C° 0.7 mm 1 mps 755 mmHg 71%
11:00 +31°C° 0.7 mm 1 mps 755 mmHg 69%
12:00 +32°C° 0.7 mm 1 mps 755 mmHg 66%
13:00 +31°C° 2 mm 1 mps 754 mmHg 69%
14:00 +31°C° 2 mm 2 mps 754 mmHg 72%
15:00 +30°C° 2 mm 2 mps 753 mmHg 75%
16:00 +29°C° 2.7 mm 2 mps 754 mmHg 80%
17:00 +28°C° 2.7 mm 2 mps 754 mmHg 85%
18:00 +27°C° 2.7 mm 2 mps 754 mmHg 90%
19:00 +26°C° 0.4 mm 2 mps 754 mmHg 91%
20:00 +26°C° 0.4 mm 2 mps 755 mmHg 92%
21:00 +26°C° 0.4 mm 2 mps 755 mmHg 93%
22:00 +26°C° 0.2 mm 2 mps 755 mmHg 94%
23:00 +25°C° 0.2 mm 1 mps 755 mmHg 95%
Show more